Snowfall_Accumulation
0.4 0.3 0.4 0.4 0.5 0.6 0.6 0.7 1.2 1.5 0.7 0.4 0.3 0.3 0.3 0.4 0.1 0.3 0.3 0.2 0.1 0.0 0.0 0.0 0.0 0.0 0.0 0.0 0.0 0.0 0.0 0.0 0.0 0.0 0.0 0.0 0.0 0.0
0.4 0.3 0.3 0.3 0.4 0.7 0.6 0.8 0.8 1.3 1.3 0.3 0.5 0.5 0.3 0.3 0.1 0.4 0.3 0.3 0.1 0.1 0.1 0.0 0.0 0.1 0.1 0.1 0.0 0.0 0.0 0.0 0.0 0.0 0.0 0.0 0.0 0.0
0.9 0.6 0.5 0.4 0.4 0.6 0.7 0.8 0.8 1.0 1.4 0.4 0.3 0.4 0.5 0.4 0.5 0.3 0.2 0.3 0.2 0.2 0.2 0.2 0.2 0.2 0.2 0.2 0.2 0.1 0.1 0.0 0.1 0.1 0.1 0.0 0.0 0.0
1.1 0.7 0.7 0.5 0.5 0.6 0.9 1.0 0.7 0.8 1.4 1.5 0.6 0.6 0.5 0.5 0.3 0.5 0.3 0.2 0.3 0.2 0.2 0.2 0.2 0.3 0.3 0.3 0.3 0.2 0.2 0.1 0.1 0.0 0.1 0.0 0.0 0.0
1.5 1.5 0.9 0.9 1.0 0.9 1.1 1.3 1.2 1.1 1.6 2.1 1.3 1.0 0.9 0.6 0.5 0.6 0.3 0.3 0.2 0.2 0.2 0.1 0.1 0.3 0.4 0.4 0.5 0.5 0.4 0.3 0.2 0.2 0.1 0.0 0.1 0.0
2.4 2.5 2.5 2.3 2.1 1.9 1.8 1.8 1.8 1.9 1.8 2.2 2.4 2.1 1.6 1.0 1.0 1.4 1.0 0.8 0.5 0.3 0.3 0.1 0.2 0.3 0.3 0.2 0.3 0.3 0.3 0.4 0.4 0.4 0.4 0.4 0.3 0.2
2.6 2.9 2.7 2.3 2.0 2.1 2.4 2.8 2.5 2.9 3.3 3.8 3.3 2.8 2.1 1.7 1.4 1.3 1.9 1.3 0.7 0.4 0.4 0.3 0.3 0.2 0.1 0.1 0.1 0.1 0.3 0.7 0.6 0.6 0.5 0.5 0.5 0.5
2.6 2.6 2.4 2.4 1.9 2.0 2.2 2.7 3.6 4.9 5.3 5.3 4.4 3.4 2.3 1.9 1.8 2.1 3.6 3.9 3.9 0.7 0.8 0.6 0.4 0.3 0.1 0.2 0.2 0.3 0.6 1.0 1.1 0.8 0.7 0.7 0.6 0.6
2.4 2.3 1.9 1.7 1.9 1.6 1.7 2.3 3.1 3.5 4.3 4.7 4.3 3.0 2.8 2.6 3.5 5.1 4.8 5.2 4.2 1.9 1.2 1.5 0.8 0.7 0.3 0.3 0.2 0.3 0.5 0.7 1.0 0.9 0.9 0.8 0.6 0.6
2.0 1.9 2.1 1.7 1.6 2.2 2.9 3.6 2.7 2.3 2.2 2.5 2.5 2.8 2.7 3.0 3.9 5.5 5.3 4.7 2.4 1.5 1.3 3.8 1.6 1.3 0.5 0.4 0.3 0.5 0.7 0.8 1.1 1.1 1.1 1.1 1.0 1.0
1.9 1.6 2.0 1.7 1.8 3.4 4.7 4.3 2.7 1.7 1.3 1.9 2.4 2.5 2.3 2.5 2.8 5.1 7.4 8.1 6.2 3.0 2.0 3.4 2.6 2.1 1.1 0.5 0.4 0.6 1.1 1.1 1.2 1.2 1.2 1.1 1.2 1.3
1.9 1.5 1.6 1.9 2.7 4.3 4.9 4.6 3.5 2.6 2.7 2.2 1.7 1.4 1.5 1.7 1.9 4.9 10.0 13.9 10.6 7.2 2.6 4.2 4.5 4.8 5.2 1.5 0.7 0.8 0.9 0.9 1.0 1.3 1.3 1.3 1.4 1.5
2.9 2.3 1.9 2.8 3.5 4.3 3.9 3.8 4.0 4.0 3.3 2.7 2.2 1.7 1.7 1.8 2.1 2.9 5.5 12.6 15.7 10.8 4.3 8.7 10.1 6.9 9.0 4.8 1.6 1.3 1.7 2.3 2.5 2.3 1.8 1.5 1.6 2.1
4.0 3.2 3.6 4.3 4.1 3.3 3.0 3.1 3.7 3.3 2.9 3.2 3.2 3.1 2.9 2.8 2.8 3.0 3.6 5.4 8.6 9.9 6.8 10.8 16.3 12.7 14.0 11.8 7.4 5.3 3.5 4.2 5.7 6.4 3.9 2.6 1.8 1.4
3.6 3.9 4.2 3.7 3.1 2.8 2.4 2.7 3.0 3.3 4.2 5.1 4.5 4.0 3.3 3.3 3.3 3.5 3.6 3.8 4.8 5.3 6.1 8.1 12.4 13.5 15.9 15.9 12.0 8.8 8.8 7.6 8.1 9.0 6.4 4.5 3.6 2.5
3.7 3.5 2.9 2.5 2.7 2.7 2.7 2.4 2.4 3.3 5.0 6.5 5.8 4.1 4.0 4.1 4.4 4.5 5.9 6.3 7.3 6.5 5.9 6.8 8.9 12.6 14.9 12.5 12.9 11.8 11.4 14.2 11.3 8.1 5.5 4.4 3.3 3.1
4.6 3.5 2.6 2.3 2.5 2.5 2.8 2.5 2.6 3.0 3.9 4.9 5.9 6.0 5.4 5.2 5.2 5.7 7.9 9.1 10.2 8.8 7.6 6.3 6.3 7.6 9.8 10.8 12.1 11.0 11.8 13.5 10.7 7.1 5.9 6.2 3.7 2.8
4.8 4.7 3.8 3.3 3.4 3.3 3.4 3.5 3.3 3.7 4.9 6.3 6.8 7.1 7.5 7.4 7.1 6.7 8.7 11.0 10.9 9.3 8.6 7.5 7.6 8.1 7.9 7.6 9.1 11.7 12.3 13.0 9.4 7.6 6.8 8.6 7.7 4.0
5.5 5.2 4.5 4.0 3.8 3.8 3.8 4.3 4.5 4.2 5.2 7.2 8.5 8.5 9.2 8.5 8.7 9.0 9.8 10.5 10.2 8.9 7.6 7.2 9.0 13.1 15.2 10.7 7.3 9.1 13.3 13.0 10.5 8.5 7.0 9.1 10.6 7.1
6.1 6.0 5.5 4.8 4.6 4.9 5.2 5.5 5.4 5.0 5.9 7.3 8.3 9.1 10.1 10.8 10.5 10.5 10.5 11.1 10.7 8.8 6.8 5.3 7.1 12.2 18.5 17.0 13.3 10.8 8.8 12.0 13.5 13.5 9.3 6.7 6.3 3.8
6.1 6.3 6.4 6.3 6.4 6.8 7.2 7.0 7.4 7.7 8.2 9.4 9.5 10.0 11.0 12.5 12.1 10.8 10.4 9.7 9.5 9.2 8.1 6.0 5.3 6.9 11.0 13.8 13.1 10.6 10.3 8.0 9.0 14.7 15.4 14.1 12.0 9.6
6.2 6.6 6.8 6.8 7.6 8.2 8.3 8.6 8.9 8.6 9.4 9.9 10.1 10.6 11.5 12.9 13.0 11.4 10.3 10.1 9.2 8.9 8.3 6.4 5.2 6.2 9.2 13.3 11.7 8.8 8.8 8.4 7.1 6.2 8.1 12.2 20.0 22.2
6.8 6.8 6.8 7.2 7.8 8.5 9.1 9.4 10.2 10.3 10.2 11.4 11.4 11.3 11.5 11.7 10.5 10.4 10.3 10.1 10.4 9.8 9.0 8.7 7.5 7.5 8.6 9.4 10.2 9.4 8.2 7.9 7.7 8.0 9.4 6.9 6.6 7.4